Regional Weather Roundup
Issued by NWS

Home | Current Version | Previous Version | Graphics & Text | Print | Product List | Glossary Off
Versions: 1 2 3 4 5 6 7 8 9 10 11 12 13 14 15 16 17 18 19 20 21 22 23 24 25 26 27 28 29 30 31 32 33 34 35 36 37 38 39 40 41 42 43 44 45 46 47 48 49 50

000
ASUS43 KMKX 260814
RWRWI

WISCONSIN REGIONAL WEATHER ROUNDUP
NATIONAL WEATHER SERVICE MILWAUKEE/SULLIVAN WI
300 AM CDT TUE MAY 26 2015

NOTE: "FAIR" INDICATES FEW OR NO CLOUDS BELOW 12,000 FEET WITH NO
SIGNIFICANT WEATHER AND/OR OBSTRUCTIONS TO VISIBILITY.

WIZ001-002-006>008-014>016-023>028-260900-
NORTHWEST WISCONSIN

CITY           SKY/WX    TMP DP  RH WIND       PRES   REMARKS
SUPERIOR ARPT  CLOUDY    47  47 100 CALM      29.81S FOG
ASHLAND        CLOUDY    50  50 100 NE3       29.82R
HAYWARD        CLOUDY    56  54  93 CALM      29.80R
SIREN          FOG       53  52  98 CALM      29.81R VSB 1/4
CUMBERLAND     FOG       54  54 100 CALM      29.80S VSB 1/4
RICE LAKE      FOG       56  55  96 CALM      29.81F VSB<1/4
CHETEK         FOG       57  57 100 E5        29.80S VSB 1/2
LADYSMITH      MOCLDY    60  59  97 S5        29.82S
EAU CLAIRE     FOG       57  56  96 CALM      29.80S VSB 1/2
MENOMONIE      MOCLDY    60  59  98 SW3       29.80F
NEW RICHMOND   FOG       58  58 100 CALM      29.80S VSB 1/2
OSCEOLA        FOG       53  53 100 CALM      29.82S VSB 1/2
$$

WIZ003>005-009-010-017-018-260900-
NORTH CENTRAL WISCONSIN

CITY           SKY/WX    TMP DP  RH WIND       PRES   REMARKS
MANITOWISH WTR PTCLDY    58  58 100 S5        29.80F
ARBOR VITAE    MOCLDY    62  60  94 CALM      29.81S
WOODRUFF       MOCLDY    62  60  94 CALM      29.81S
RHINELANDER    CLEAR     59  57  93 SW6       29.83S
EAGLE RIVER    PTCLDY    60  60  99 SW3       29.81F
LAND O LAKES   MOCLDY    60  59  97 CALM      29.82S
PHILLIPS       MOCLDY    59  59  99 S5        29.80S
TOMAHAWK       CLEAR     57  56  97 CALM      29.82S FOG
MEDFORD        PTCLDY    60  59  97 SW5       29.82F
MERRILL        FOG       51  51 100 CALM      29.83S VSB 1/2
$$

WIZ029-030-035-036-043>047-260900-
CENTRAL WISCONSIN

CITY           SKY/WX    TMP DP  RH WIND       PRES   REMARKS
WAUSAU         PTCLDY    61  60  97 SW7       29.81F
MOSINEE        PTCLDY    59  59 100 S7        29.84F
MARSHFIELD     MOCLDY    63  60  90 SW8       29.82F
STEVENS POINT  PTCLDY    59  58  98 CALM      29.85S
WAUPACA        CLEAR     63  62  97 CALM      29.84S
WAUTOMA        CLEAR     62  62 100 CALM      29.85F
WISC RAPIDS    MOCLDY    63  60  90 CALM      29.85S
CAMP DOUGLAS   MOCLDY    67  67 100 SW6       29.81F
$$

WIZ011>013-019>022-031-037>040-048>050-260900-
NORTHEAST WISCONSIN

CITY           SKY/WX    TMP DP  RH WIND       PRES   REMARKS
ANTIGO         CLEAR     60  60  97 SW8       29.84S
SHAWANO        CLEAR     64  61  90 CALM      29.84S
OCONTO         PTCLDY    61  61 100 CALM      29.82F
STURGEON BAY   PTCLDY    66  59  77 SW10      29.86S
GREEN BAY      CLEAR     66  60  81 S6        29.85F
MANITOWOC      FAIR      61  57  87 SE3       29.87S
APPLETON       CLEAR     63  57  82 SW7       29.86S
CLINTONVILLE   CLEAR     63  59  88 SW5       29.84S
OSHKOSH        CLEAR     64  59  83 S8        29.85F
$$

WIZ032>034-041-042-053>061-260900-
SOUTHWEST WISCONSIN

CITY           SKY/WX    TMP DP  RH WIND       PRES   REMARKS
LA CROSSE      CLOUDY    64  60  87 SE6       29.77F
SPARTA         MOCLDY    64  62  91 S5        29.82F
VIROQUA        CLOUDY    62  62  98 S7        29.83F
BOSCOBEL       PTCLDY    64  58  80 S3        29.85F
PRAIRIE DU CHI PTCLDY    60  57  90 E7        29.83F
PLATTEVILLE    CLOUDY    67  61  80 W7G13     29.88R
$$

WIZ056-057-062-063-064-067-068-260900-
SOUTH CENTRAL WISCONSIN

CITY           SKY/WX    TMP DP  RH WIND       PRES   REMARKS
REEDSBURG      CLOUDY    67  62  84 SW5       29.85S
BARABOO/DELLS  MOCLDY    65  60  82 S5        29.85S
LONE ROCK      MOCLDY    67  61  81 W5        29.86R
MINERAL POINT  MOCLDY    64  61  88 SW5G18    29.89R
MADISON        FAIR      66  60  81 S8        29.86F
MIDDLETON      FAIR      67  60  78 S9        29.87F
WATERTOWN      CLEAR     65  64  96 S8        29.88S
MONROE         PTCLDY    64  63  94 S12       29.88F
JANESVILLE     CLEAR     68  63  83 S7        29.89S
$$

WIZ051-052-058>065-066-070>072-260900-
SOUTHEAST WISCONSIN

CITY           SKY/WX    TMP DP  RH WIND       PRES   REMARKS
MILWAUKEE      PTCLDY    67  60  78 S8        29.91S
WAUKESHA       CLEAR     63  59  88 S5        29.92S
MILWAUKEE/TIMM CLEAR     68  59  73 S12       29.90F
RACINE         PTCLDY    68  59  73 SW9       29.93S
BURLINGTON     CLEAR     63  60  87 S7        29.91F
KENOSHA        PTCLDY    67  61  81 S7        29.91F
FOND DU LAC    CLEAR     68  60  75 S13       29.87S
SHEBOYGAN      CLEAR     64  60  87 S7        29.88S
WEST BEND      CLEAR     64  59  82 S6        29.89S
JUNEAU         CLEAR     64  60  86 S7        29.89F
$$

LSZ147-162-260900-
LAKE SUPERIOR

STATION/POSITION TIME  TEMP    WIND        PRES    WAVE
                       AIR SEA DIR/SP/G            HT/PER
                 (UTC) (F)     (DEG/KT/KT) (MB)    (FT/S)
W MID LAKE BUOY  0750   41 36  330/  8/  8   N/A     1/ 4
DEVILS ISLAND    0800   44     250/  5/  5   N/A
PORT WING        0740   45     220/  1/  2   N/A
SAXON HARBOR     0700   48        CALM       N/A
$$

LMZ867-665-643>646-260900-
LAKE MICHIGAN

STATION/POSITION TIME  TEMP    WIND        PRES    WAVE
                       AIR SEA DIR/SP/G            HT/PER
                 (UTC) (F)     (DEG/KT/KT) (MB)    (FT/S)
CHAMBERS ISLAND  0700   62     170/  4/  8   N/A
N MID LAKE BUOY  0750   42 37  190/ 10/ 12   N/A     2/ 5
NORTHPORT PIER   0700   59     150/  3/  7   N/A
SISTER BAY       0748   62     160/  5/  6   N/A
KEWAUNEE LAKESHO 0700   53     180/  3/  5   N/A
SHEBOYGAN LAKESH 0800   63     220/  6/  7   N/A
PORT WASHINGTON  0700          190/  6/  9   N/A
ATWATER BUOY     0700   53 46  150/ 12/ 14   N/A
MILWAUKEE LAKESH 0700   69     210/ 11/ 14   N/A
S MID LAKE BUOY  0750   46 38  190/ 10/ 12   N/A     1/ 3
KENOSHA   LAKESH 0800   67     210/  7/  8   N/A
$$

TC  - TEMPERATURE IN CELSIUS
VSB - VISIBILITY IN STATUTE MILES
WCI - WIND CHILL INDEX
HX  - HEAT INDEX



USA.gov is the U.S. government's official web portal to all federal, state and local government web resources and services.